Location: Meylan - GAD - Ancien Couvent des Capucins
(45.2229°N, 5.7790°E)
Time: 19:48:52
(UTC+02:00)

ISS - Visible Passes

Search period start: 18 May 2021 00:00
Search period end: 28 May 2021 00:00
Orbit: 417 x 422 km, 51.6° (Epoch: 18 May)

Date Brightness Start Highest point End Pass type
(mag) Time Alt. Az. Time Alt. Az. Time Alt. Az.
18 May -1.7 01:18:48 10° NW 01:21:46 28° N 01:22:53 23° NE visible
18 May -1.0 02:55:35 10° WNW 02:55:46 11° WNW 02:55:46 11° WNW visible
18 May -2.2 22:53:36 10° W 22:56:46 37° NNW 22:59:57 10° NE visible
19 May -1.6 00:31:15 10° WNW 00:34:10 26° N 00:36:27 14° ENE visible
19 May -1.5 02:08:08 10° NW 02:09:22 20° NW 02:09:22 20° NW visible
19 May -2.7 22:05:56 10° W 22:09:13 49° NNW 22:12:31 10° NE visible
19 May -1.5 23:43:37 10° WNW 23:46:32 26° N 23:49:27 10° ENE visible
20 May -2.1 01:20:42 10° NW 01:23:12 34° NNW 01:23:12 34° NNW visible
20 May -1.6 22:55:57 10° WNW 22:58:54 28° N 23:01:52 10° NE visible
21 May -2.1 00:33:15 10° NW 00:36:20 32° NNE 00:37:06 28° NE visible
21 May -0.8 02:10:01 10° WNW 02:10:02 10° WNW 02:10:02 10° WNW visible
21 May -1.8 22:08:14 10° WNW 22:11:17 31° NNW 22:14:21 10° NE visible
21 May -1.8 23:45:45 10° NW 23:48:44 28° N 23:51:03 14° ENE visible
22 May -1.7 01:22:31 10° WNW 01:23:59 24° NW 01:23:59 24° NW visible
22 May -1.6 22:58:10 10° WNW 23:01:05 26° N 23:04:01 10° ENE visible
23 May -2.8 00:35:04 10° NW 00:37:58 48° N 00:37:58 48° N visible
23 May -1.6 22:10:33 10° WNW 22:13:27 26° N 22:16:21 10° ENE visible
23 May -2.5 23:47:37 10° NW 23:50:50 39° NNE 23:51:59 29° ENE visible
24 May -1.0 01:24:27 10° WNW 01:24:55 13° WNW 01:24:55 13° WNW visible
24 May -2.1 23:00:09 10° NW 23:03:14 32° NNE 23:06:01 12° ENE visible
25 May -2.4 00:36:54 10° WNW 00:38:57 34° WNW 00:38:57 34° WNW visible
25 May -1.9 22:12:38 10° NW 22:15:37 28° N 22:18:35 10° ENE visible
25 May -3.8 23:49:25 10° WNW 23:52:47 76° NNE 23:53:00 71° ENE visible
26 May -3.1 23:01:57 10° NW 23:05:15 53° NNE 23:07:06 23° E visible
27 May -1.4 00:39:00 10° WNW 00:40:02 17° W 00:40:02 17° W visible
27 May -2.6 22:14:29 10° NW 22:17:41 40° NNE 22:20:53 10° E visible
27 May -3.1 23:51:18 10° WNW 23:54:09 42° WSW 23:54:09 42° WSW visible
